#timestamp,LO_Frequency,Hit,StdDev 
1552780815.9,286047001.8,N
1552780835.7,286047004.4,N
1552780855.6,286047002.5,N
1552780875.4,286047000.2,N
1552780895.2,286047000.0,N
1552780915.1,286047002.5,N
1552780916.0,286047002.5,N
1552780935.8,286047002.3,N
1552780955.7,286046999.8,N
1552780975.5,286047002.8,N
1552780995.3,286047001.1,N
1552781015.2,286046999.4,N
1552781035.0,286046998.4,N
1552781035.9,286046998.4,N
1552781055.8,286046998.9,N
1552781075.6,286047001.1,N
1552781095.4,286047001.1,N
1552781115.3,286047000.5,N
1552781135.1,286046998.2,N
1552781136.0,286046998.2,N
1552781155.8,286046998.5,N
1552781175.7,286047000.9,N
1552781195.5,286047002.4,N
1552781215.3,286046999.8,N
1552781235.2,286047002.2,N
1552781255.0,286047002.1,N
1552781255.9,286047002.1,N
1552781275.8,286047001.8,N
1552781295.6,286047004.2,N
1552781315.4,286047001.6,N
1552781335.3,286047002.6,N
1552781355.1,286047002.4,N
1552781375.9,286047002.7,N
1552781395.7,286047002.3,N
1552781415.5,286047002.1,N
1552781435.4,286047002.7,N
1552781455.2,286046998.2,N
1552781475.0,286046997.5,N
1552781475.9,286046997.5,N
1552781495.8,286046996.7,N
1552781515.6,286046999.6,N
1552781535.5,286046998.3,N
1552781555.3,286047000.0,N
1552781575.1,286046999.7,N
1552781595.9,286046999.7,N
1552781615.7,286047000.4,N
1552781635.5,286047000.1,N
1552781655.4,286047000.3,N
1552781675.2,286046999.4,N
1552781695.1,286046999.4,N
1552781696.0,286046999.4,N
1552781715.8,286046998.6,N
1552781735.6,286046998.7,N
1552781755.5,286047000.9,N
1552781775.3,286047000.8,N
1552781795.1,286046999.8,N
1552781815.9,286047001.9,N
1552781835.7,286047002.3,N
1552781855.6,286047000.4,N
1552781875.4,286046998.9,N
1552781895.2,286046998.2,N
1552781915.1,286047000.4,N
1552781916.0,286047000.4,N
1552781935.8,286047000.6,N
1552781955.6,286047001.0,N
1552781975.5,286046999.7,N
1552781995.3,286047000.0,N
1552782015.2,286047000.3,N
1552782035.9,286046999.7,N
1552782055.7,286047002.5,N
1552782075.6,286047004.3,Y
1552782095.4,286047004.2,P
1552782115.2,286047001.6,N
1552782135.1,286047001.5,N
1552782136.0,286047001.5,N
1552782155.8,286047002.2,N
1552782175.7,286047000.1,N
1552782195.5,286047001.6,N
1552782215.3,286047002.5,N
1552782235.2,286047001.4,N
1552782255.9,286047004.4,Y
1552782275.7,286047002.7,P
1552782295.6,286047002.5,P
1552782315.4,286047000.4,N
1552782335.3,286047000.9,N
1552782355.1,286047000.9,N
1552782356.0,286047000.9,N
1552782375.8,286046999.7,N
1552782395.7,286046998.5,N
1552782415.5,286046997.2,N
1552782435.3,286046997.1,N
1552782455.2,286046996.8,N
1552782475.0,286046995.3,N
1552782475.9,286046995.3,N
1552782495.8,286046995.7,N
1552782515.6,286046999.5,N
1552782535.4,286046998.3,N
1552782555.3,286046998.7,N
1552782575.1,286046998.6,N
1552782595.8,286046999.6,N
1552782615.7,286046999.3,N
1552782635.5,286047000.9,N
1552782655.3,286047000.2,N
1552782675.2,286047000.8,N
1552782695.0,286047002.4,N
1552782695.9,286047002.4,N
1552782715.8,286047000.0,N
1552782735.6,286047002.6,N
1552782755.4,286046999.7,N
1552782775.3,286047000.1,N
1552782795.1,286047002.5,N
1552782815.8,286047002.1,N
1552782835.7,286047002.6,N
1552782855.5,286047000.2,N
1552782875.4,286047001.8,N
1552782895.2,286047002.7,N
1552782915.0,286047001.9,N
1552782915.9,286047001.9,N
1552782935.3,286047002.5,N
1552782955.1,286047000.7,N
1552782975.9,286047001.0,N
1552782995.7,286047002.4,N
1552783015.5,286046999.8,N
1552783035.4,286047002.7,N
1552783055.2,286047002.8,N
1552783075.1,286047000.6,N
1552783076.0,286047000.6,N
1552783095.8,286047000.1,N
1552783115.6,286047000.6,N
1552783135.5,286046999.8,N
1552783155.3,286047002.8,N
1552783175.1,286047000.7,N
1552783195.9,286046998.7,N
1552783215.7,286047000.8,N
1552783235.6,286047000.2,N
1552783255.4,286046999.2,N
1552783275.2,286046998.6,N
1552783295.1,286047000.0,N
1552783296.0,286047000.0,N
1552783315.8,286047000.3,N
1552783335.6,286047002.3,N
1552783355.5,286046999.8,N
1552783375.3,286047000.9,N
1552783395.2,286046999.8,N
1552783415.9,286047002.6,N
1552783435.7,286047003.9,Y
1552783455.6,286047001.7,P
1552783475.4,286047002.0,P
1552783495.2,286047002.5,P
1552783515.1,286047002.1,Y
1552783516.0,286047002.1,P
1552783535.8,286047000.6,P
1552783555.7,286047001.2,N
1552783575.5,286047001.2,N
1552783595.3,286047001.2,N
1552783615.2,286047000.9,N
1552783635.0,286047000.7,N
1552783636.0,286047000.7,N
1552783655.8,286047000.3,N
1552783675.7,286047001.0,N
1552783695.5,286046998.5,Y
1552783715.3,286046998.2,P
1552783735.2,286046998.1,N
1552783755.0,286046998.5,N
1552783755.9,286046998.5,N
1552783775.8,286046999.5,N
1552783795.6,286046996.6,Y
1552783815.4,286046999.3,P
1552783835.3,286046998.7,P
1552783855.1,286046998.9,P
1552783875.8,286046996.6,Y
1552783895.7,286046996.5,P
1552783915.5,286046996.7,N
1552783935.5,286046994.9,P
1552783955.3,286046997.4,N
1552783975.1,286046996.9,N
1552783995.9,286046996.8,N
1552784015.7,286046998.0,N
1552784035.6,286046997.9,N
1552784055.4,286046999.5,N
1552784075.2,286046998.6,N
1552784095.1,286046997.0,N
1552784096.0,286046997.0,N
1552784115.8,286046996.9,N
1552784135.6,286046996.8,N
1552784155.5,286046997.4,N
1552784175.3,286046996.1,Y
1552784195.2,286046999.2,P
1552784215.9,286046994.9,P
1552784235.7,286046995.5,N
1552784255.6,286046997.6,N
1552784275.4,286046995.7,N
1552784295.2,286046998.0,N
1552784315.1,286046995.2,Y
1552784316.0,286046995.2,P
1552784335.8,286047000.7,N
1552784355.7,286046998.6,N
1552784375.5,286046998.8,N
1552784395.3,286046998.9,N
